When you browse on this site, cookies collect data to enhance your experience and personalize the content and advertising you see.
Visit our Privacy Policy to learn more. By continuing to use the site, you agree to this use of cookies and data.
  • In Hungary
  • List of Countries
  • For 7 days
  • Water Temperature
  • Satellite Maps
  • Weather Map
  • News
  • Weather Widgets
  • user-avatar
    Login

    Hourly Weather Salamina

    Today, 10 December, Monday

    Time Temperature Precipitation Wind Pressure Humidity
    00:00 +13°C° 0 mm 3 mps 752 mmHg 72%
    01:00 +12°C° 0 mm 3 mps 752 mmHg 72%
    02:00 +12°C° 0 mm 3 mps 752 mmHg 73%
    03:00 +12°C° 0 mm 3 mps 751 mmHg 73%
    04:00 +12°C° 0 mm 3 mps 751 mmHg 73%
    05:00 +12°C° 0 mm 4 mps 750 mmHg 73%
    06:00 +13°C° 0.1 mm 4 mps 749 mmHg 74%
    07:00 +13°C° 0.1 mm 4 mps 749 mmHg 75%
    08:00 +13°C° 0.1 mm 5 mps 748 mmHg 75%
    09:00 +14°C° 0.1 mm 5 mps 748 mmHg 71%
    10:00 +15°C° 0.1 mm 6 mps 748 mmHg 67%
    11:00 +16°C° 0.1 mm 6 mps 748 mmHg 63%
    12:00 +16°C° 0 mm 7 mps 747 mmHg 57%
    13:00 +17°C° 0 mm 7 mps 747 mmHg 52%
    14:00 +17°C° 0 mm 8 mps 747 mmHg 46%
    15:00 +16°C° 0.2 mm 8 mps 747 mmHg 50%
    16:00 +15°C° 0.2 mm 7 mps 748 mmHg 54%
    17:00 +14°C° 0.2 mm 7 mps 748 mmHg 59%
    18:00 +12°C° 0.1 mm 7 mps 749 mmHg 59%
    19:00 +13°C° 0.1 mm 6 mps 750 mmHg 59%
    20:00 +11°C° 0.1 mm 6 mps 751 mmHg 60%
    21:00 +12°C° 0 mm 5 mps 751 mmHg 59%
    22:00 +11°C° 0 mm 4 mps 751 mmHg 58%
    23:00 +11°C° 0 mm 4 mps 752 mmHg 57%

    Tomorrow, 11 December, Tuesday

    Time Temperature Precipitation Wind Pressure Humidity
    00:00 +11°C° 0 mm 3 mps 752 mmHg 58%
    01:00 +10°C° 0 mm 2 mps 752 mmHg 59%
    02:00 +10°C° 0 mm 2 mps 753 mmHg 60%
    03:00 +10°C° 0 mm 2 mps 753 mmHg 60%
    04:00 +10°C° 0 mm 2 mps 753 mmHg 61%
    05:00 +10°C° 0 mm 2 mps 753 mmHg 61%
    06:00 +10°C° 0 mm 2 mps 753 mmHg 62%
    07:00 +10°C° 0 mm 2 mps 753 mmHg 62%
    08:00 +10°C° 0 mm 2 mps 753 mmHg 63%
    09:00 +10°C° 0.3 mm 2 mps 754 mmHg 63%
    10:00 +10°C° 0.3 mm 2 mps 754 mmHg 63%
    11:00 +10°C° 0.3 mm 3 mps 755 mmHg 63%
    12:00 +10°C° 1 mm 3 mps 754 mmHg 66%
    13:00 +10°C° 1 mm 3 mps 754 mmHg 68%
    14:00 +9°C° 1 mm 3 mps 754 mmHg 71%
    15:00 +9°C° 0.2 mm 2 mps 755 mmHg 71%
    16:00 +9°C° 0.2 mm 2 mps 755 mmHg 70%
    17:00 +9°C° 0.2 mm 2 mps 755 mmHg 70%
    18:00 +9°C° 0 mm 2 mps 756 mmHg 70%
    19:00 +9°C° 0 mm 2 mps 756 mmHg 71%
    20:00 +9°C° 0 mm 1 mps 757 mmHg 71%
    21:00 +9°C° 0 mm 1 mps 757 mmHg 72%
    22:00 +9°C° 0 mm 1 mps 757 mmHg 73%
    23:00 +9°C° 0 mm 1 mps 757 mmHg 73%

    Day after tomorrow, 12 December, Wednesday

    Time Temperature Precipitation Wind Pressure Humidity
    00:00 +9°C° 0 mm 1 mps 757 mmHg 74%
    01:00 +8°C° 0 mm 1 mps 758 mmHg 75%
    02:00 +8°C° 0 mm 1 mps 758 mmHg 75%
    03:00 +8°C° 0 mm 1 mps 758 mmHg 75%
    04:00 +8°C° 0 mm 1 mps 758 mmHg 75%
    05:00 +8°C° 0 mm 1 mps 758 mmHg 75%
    06:00 +8°C° 0 mm 1 mps 758 mmHg 74%
    07:00 +8°C° 0 mm 1 mps 759 mmHg 74%
    08:00 +8°C° 0 mm 1 mps 759 mmHg 73%
    09:00 +9°C° 0 mm 1 mps 759 mmHg 67%
    10:00 +10°C° 0 mm 1 mps 759 mmHg 60%
    11:00 +12°C° 0 mm 1 mps 760 mmHg 54%
    12:00 +12°C° 0 mm 2 mps 759 mmHg 51%
    13:00 +13°C° 0 mm 2 mps 759 mmHg 49%
    14:00 +13°C° 0 mm 2 mps 759 mmHg 47%
    15:00 +13°C° 0 mm 2 mps 759 mmHg 50%
    16:00 +12°C° 0 mm 1 mps 759 mmHg 53%
    17:00 +11°C° 0 mm 1 mps 759 mmHg 55%
    18:00 +11°C° 0 mm 1 mps 759 mmHg 58%
    19:00 +10°C° 0 mm 1 mps 760 mmHg 61%
    20:00 +9°C° 0 mm 2 mps 760 mmHg 64%
    21:00 +10°C° 0 mm 1 mps 760 mmHg 66%
    22:00 +9°C° 0 mm 1 mps 760 mmHg 68%
    23:00 +9°C° 0 mm 1 mps 761 mmHg 71%

    13 December, Thursday

    Time Temperature Precipitation Wind Pressure Humidity
    00:00 +9°C° 0 mm 1 mps 760 mmHg 72%
    01:00 +9°C° 0 mm 1 mps 760 mmHg 73%
    02:00 +9°C° 0 mm 1 mps 760 mmHg 74%
    03:00 +9°C° 0 mm 1 mps 760 mmHg 74%
    04:00 +9°C° 0 mm 1 mps 760 mmHg 74%
    05:00 +9°C° 0 mm 1 mps 760 mmHg 74%
    06:00 +9°C° 0 mm 1 mps 760 mmHg 74%
    07:00 +9°C° 0 mm 1 mps 760 mmHg 75%
    08:00 +9°C° 0 mm 1 mps 761 mmHg 76%
    09:00 +10°C° 0 mm 1 mps 761 mmHg 73%
    10:00 +10°C° 0 mm 2 mps 761 mmHg 70%
    11:00 +13°C° 0 mm 2 mps 761 mmHg 67%
    12:00 +12°C° 0.8 mm 2 mps 760 mmHg 72%
    13:00 +12°C° 0.8 mm 2 mps 760 mmHg 77%
    14:00 +12°C° 0.8 mm 1 mps 759 mmHg 82%
    15:00 +11°C° 0.2 mm 1 mps 759 mmHg 83%
    16:00 +11°C° 0.2 mm 1 mps 759 mmHg 85%
    17:00 +11°C° 0.2 mm 1 mps 758 mmHg 86%
    18:00 +11°C° 0 mm 1 mps 758 mmHg 86%
    19:00 +11°C° 0 mm 1 mps 758 mmHg 87%
    20:00 +11°C° 0 mm 1 mps 758 mmHg 87%
    21:00 +11°C° 0 mm 1 mps 758 mmHg 87%
    22:00 +10°C° 0 mm 2 mps 758 mmHg 87%
    23:00 +10°C° 0 mm 2 mps 758 mmHg 87%

    14 December, Friday

    Time Temperature Precipitation Wind Pressure Humidity
    00:00 +10°C° 0 mm 2 mps 758 mmHg 86%
    01:00 +10°C° 0 mm 2 mps 758 mmHg 86%
    02:00 +10°C° 0 mm 2 mps 757 mmHg 85%
    03:00 +10°C° 0 mm 2 mps 757 mmHg 85%
    04:00 +10°C° 0 mm 2 mps 757 mmHg 84%
    05:00 +12°C° 0 mm 2 mps 756 mmHg 84%
    06:00 +12°C° 0 mm 2 mps 756 mmHg 83%
    07:00 +12°C° 0 mm 2 mps 756 mmHg 81%
    08:00 +11°C° 0 mm 3 mps 756 mmHg 80%
    09:00 +13°C° 0 mm 3 mps 756 mmHg 76%
    10:00 +14°C° 0 mm 4 mps 756 mmHg 72%
    11:00 +17°C° 0 mm 4 mps 756 mmHg 68%
    12:00 +16°C° 0 mm 5 mps 755 mmHg 65%
    13:00 +17°C° 0 mm 6 mps 755 mmHg 62%
    14:00 +19°C° 0 mm 6 mps 754 mmHg 59%
    15:00 +17°C° 0 mm 6 mps 753 mmHg 62%
    16:00 +16°C° 0 mm 6 mps 753 mmHg 64%
    17:00 +16°C° 0 mm 6 mps 752 mmHg 66%
    18:00 +16°C° 0 mm 6 mps 752 mmHg 68%
    19:00 +15°C° 0 mm 6 mps 752 mmHg 70%
    20:00 +15°C° 0 mm 6 mps 752 mmHg 72%
    21:00 +15°C° 0 mm 6 mps 751 mmHg 72%
    22:00 +15°C° 0 mm 5 mps 751 mmHg 73%
    23:00 +14°C° 0 mm 5 mps 751 mmHg 73%

    15 December, Saturday

    Time Temperature Precipitation Wind Pressure Humidity
    00:00 +14°C° 0.1 mm 4 mps 750 mmHg 74%
    01:00 +14°C° 0.1 mm 4 mps 750 mmHg 75%
    02:00 +14°C° 0.1 mm 4 mps 750 mmHg 77%
    03:00 +13°C° 0.1 mm 4 mps 750 mmHg 75%
    04:00 +13°C° 0.1 mm 5 mps 750 mmHg 73%
    05:00 +12°C° 0.1 mm 5 mps 749 mmHg 71%
    06:00 +12°C° 0 mm 5 mps 750 mmHg 72%
    07:00 +12°C° 0 mm 4 mps 750 mmHg 72%
    08:00 +12°C° 0 mm 4 mps 751 mmHg 72%
    09:00 +12°C° 0 mm 4 mps 752 mmHg 70%
    10:00 +13°C° 0 mm 4 mps 752 mmHg 67%
    11:00 +13°C° 0 mm 4 mps 753 mmHg 65%
    12:00 +13°C° 0 mm 5 mps 753 mmHg 65%
    13:00 +13°C° 0 mm 5 mps 753 mmHg 64%
    14:00 +13°C° 0 mm 5 mps 753 mmHg 64%
    15:00 +12°C° 0 mm 5 mps 754 mmHg 66%
    16:00 +12°C° 0 mm 5 mps 754 mmHg 67%
    17:00 +10°C° 0 mm 5 mps 754 mmHg 69%
    18:00 +10°C° 0 mm 5 mps 755 mmHg 70%
    19:00 +10°C° 0 mm 4 mps 756 mmHg 72%
    20:00 +10°C° 0 mm 4 mps 756 mmHg 73%
    21:00 +10°C° 0 mm 4 mps 756 mmHg 74%
    22:00 +10°C° 0 mm 4 mps 757 mmHg 75%
    23:00 +8°C° 0 mm 4 mps 757 mmHg 76%
    Show more